sat.trackr.live / text

‹ back to catalog

STARLINK-36543

NORAD 67515 · 2026-012Y

PAYLOAD ACTIVE UNKNOWN

§ Identity

Operator
Country
US
Launch date
2026-01-18
Launch site
AFETR
Launch vehicle
Mass (kg)
RCS (m²)

Purposes: comms

External: N2YO · Heavens-Above · Gunter

§ Orbital elements

Epoch: 2026-09-19T13:43:40.672992Z

Period
94.27 min
Inclination
43.0028°
Eccentricity
0.0001734
Mean motion
15.27603374 rev/d
Perigee alt
481.8 km
Apogee alt
484.2 km
Semi-major
6,861.1 km
B*
4.7473e-4
RAAN
299.4602°
Arg perigee
286.4917°
Mean anomaly
73.5744°
Rev number
3,741

§ Raw data

STARLINK-365431 67515U 26012Y   26262.57199853  .00012833  00000+0  47473-3 0  99942 67515  43.0028 299.4602 0001734 286.4917  73.5744 15.27603374 37410

JSON: /api/v1/satellites/67515 · /tle

For live sub-satellite position, see the globe view (requires WebGL).

§ Visibility from observer

Set your observer location to see the next 7 days of passes ≥ 10°. The values pass through the URL so the page stays shareable.

No JS? Fill the form by hand. The geolocation button needs JavaScript.